CW9321 Weather Reports


Display with metric or nautical units.
time (UTC)temp
F
wind
direction
speed
MPH
gust
MPH
rain 1hr
in
rain 24hr
in
rain mn
in
humidity
%
barometer
mb
20201026220513 25 180 0.0 8.0 0.00 0.00 0.00 66 1019.1
20201026220019 25 202 2.0 7.0 0.00 0.00 0.00 67 1019.2
20201026215509 25 197 4.0 6.0 0.00 0.00 0.00 65 1019.3
20201026215008 25 180 2.0 8.0 0.00 0.00 0.00 67 1019.2
20201026214517 25 180 0.0 8.0 0.00 0.00 0.00 65 1019.2
20201026214003 24 171 2.0 7.0 0.00 0.00 0.00 64 1018.8
20201026213509 24 155 1.0 8.0 0.00 0.00 0.00 63 1018.8
20201026213020 24 195 5.0 10.0 0.00 0.00 0.00 61 1018.9
20201026212522 24 142 0.0 11.0 0.00 0.00 0.00 60 1018.9
20201026212009 25 146 6.0 15.0 0.00 0.00 0.00 62 1019.5
20201026211522 25 144 5.0 15.0 0.00 0.00 0.00 60 1019.6
20201026211007 25 150 6.0 12.0 0.00 0.00 0.00 62 1019.5
20201026210520 25 147 7.0 13.0 0.00 0.00 0.00 62 1019.5
20201026210007 25 158 4.0 13.0 0.00 0.00 0.00 61 1019.6
20201026205515 25 159 7.0 13.0 0.00 0.00 0.00 61 1020.0
20201026205025 26 144 9.0 14.0 0.00 0.00 0.00 59 1020.4
20201026204508 27 159 5.0 15.0 0.00 0.00 0.00 61 1020.4
20201026204004 27 180 12.0 15.0 0.00 0.00 0.00 61 1020.5
20201026203504 27 153 12.0 15.0 0.00 0.00 0.00 62 1020.5
20201026203011 26 147 5.0 13.0 0.00 0.00 0.00 62 1020.6
20201026202504 26 169 7.0 15.0 0.00 0.00 0.00 61 1020.4
20201026202009 26 161 11.0 16.0 0.00 0.00 0.00 62 1020.3
20201026201521 26 137 13.0 16.0 0.00 0.00 0.00 63 1020.4
20201026201010 26 108 4.0 12.0 0.00 0.00 0.00 62 1020.5
20201026200513 25 136 5.0 17.0 0.00 0.00 0.00 64 1020.4
20201026200017 25 155 9.0 17.0 0.00 0.00 0.00 62 1020.2
20201026195507 25 138 10.0 16.0 0.00 0.00 0.00 61 1019.9
20201026195009 25 149 10.0 16.0 0.00 0.00 0.00 60 1020.1
20201026194521 25 141 9.0 14.0 0.00 0.00 0.00 63 1020.0
20201026194006 24 142 4.0 17.0 0.00 0.00 0.00 62 1019.6
20201026193508 24 173 14.0 17.0 0.00 0.00 0.00 63 1019.7
20201026193025 24 188 6.0 13.0 0.00 0.00 0.00 62 1019.8
20201026192505 24 157 5.0 11.0 0.00 0.00 0.00 63 1019.8
20201026192005 23 150 2.0 9.0 0.00 0.00 0.00 65 1020.1
20201026191509 23 179 2.0 9.0 0.00 0.00 0.00 64 1020.1
20201026191024 22 151 3.0 7.0 0.00 0.00 0.00 65 1019.8
20201026190504 22 167 0.0 7.0 0.00 0.00 0.00 67 1020.1
20201026190034 21 175 0.0 12.0 0.00 0.00 0.00 68 1020.1
20201026185504 21 162 3.0 12.0 0.00 0.00 0.00 67 1020.1
20201026185006 21 148 6.0 11.0 0.00 0.00 0.00 69 1020.3
20201026184510 20 161 5.0 12.0 0.00 0.00 0.00 68 1020.5
20201026184012 20 208 8.0 12.0 0.00 0.00 0.00 71 1020.5
20201026183508 19 214 6.0 7.0 0.00 0.00 0.00 71 1020.4
20201026183011 19 213 1.0 7.0 0.00 0.00 0.00 71 1020.4
20201026182500 18 169 2.0 9.0 0.00 0.00 0.00 70 1020.2
20201026182019 18 197 5.0 9.0 0.00 0.00 0.00 70 1020.4
20201026181501 18 193 5.0 7.0 0.00 0.00 0.00 72 1020.3
20201026181006 17 191 4.0 11.0 0.00 0.00 0.00 72 1020.0
20201026180500 17 203 5.0 11.0 0.00 0.00 0.00 72 1020.0
20201026180000 16 206 9.0 16.0 0.00 0.00 0.00 72 1020.0
20201026175512 16 167 5.0 16.0 0.00 0.00 0.00 71 1019.7
20201026175001 16 198 5.0 9.0 0.00 0.00 0.00 73 1019.8
20201026174507 15 178 4.0 9.0 0.00 0.00 0.00 74 1019.8
20201026174007 15 154 6.0 11.0 0.00 0.00 0.00 74 1019.9
20201026173500 14 186 9.0 13.0 0.00 0.00 0.00 74 1019.7
20201026173000 14 181 6.0 15.0 0.00 0.00 0.00 75 1019.5
20201026172500 14 175 6.0 18.0 0.00 0.00 0.00 74 1019.6
20201026172001 13 196 12.0 18.0 0.00 0.00 0.00 75 1019.7
20201026171500 13 162 6.0 11.0 0.00 0.00 0.00 77 1019.6
20201026171009 13 210 6.0 15.0 0.00 0.00 0.00 76 1019.6
20201026170507 12 202 5.0 15.0 0.00 0.00 0.00 75 1019.2
20201026170034 12 171 13.0 15.0 0.00 0.00 0.00 76 1019.3
20201026165504 12 186 8.0 17.0 0.00 0.00 0.00 76 1019.6
20201026165000 11 182 5.0 17.0 0.00 0.00 0.00 77 1019.2
20201026164508 11 172 7.0 12.0 0.00 0.00 0.00 78 1019.3
20201026164010 11 161 7.0 7.0 0.00 0.00 0.00 78 1019.5
20201026163500 10 167 5.0 9.0 0.00 0.01 0.00 78 1019.3
20201026163000 10 167 4.0 10.0 0.00 0.01 0.00 78 1019.3
20201026162500 10 160 4.0 12.0 0.00 0.01 0.00 79 1019.4
20201026162001 9 161 7.0 12.0 0.00 0.01 0.00 79 1019.2
20201026161500 9 147 5.0 17.0 0.00 0.01 0.00 79 1019.2
20201026161007 9 188 11.0 20.0 0.00 0.01 0.00 80 1019.2
20201026160508 9 170 5.0 20.0 0.00 0.01 0.00 79 1019.2
20201026160000 8 198 6.0 16.0 0.00 0.01 0.00 80 1019.2
20201026155459 8 158 12.0 15.0 0.00 0.01 0.00 81 1019.3
20201026154959 7 149 14.0 16.0 0.00 0.01 0.00 82 1019.1
20201026154510 7 197 15.0 16.0 0.00 0.01 0.00 82 1019.2
20201026154006 7 191 4.0 9.0 0.00 0.01 0.00 83 1019.2
20201026153500 6 205 3.0 11.0 0.00 0.01 0.00 83 1019.0
20201026152959 5 196 5.0 11.0 0.00 0.01 0.00 83 1019.2
20201026152510 5 198 0.0 10.0 0.00 0.01 0.00 84 1019.2
20201026152011 5 182 5.0 10.0 0.00 0.01 0.00 84 1019.1
20201026151500 4 194 3.0 9.0 0.00 0.01 0.00 84 1018.7
20201026151012 4 188 2.0 9.0 0.00 0.01 0.00 84 1018.7
20201026150500 3 167 3.0 6.0 0.00 0.01 0.00 85 1018.7
20201026150035 3 163 2.0 5.0 0.00 0.01 0.00 85 1018.8
20201026145500 3 163 2.0 5.0 0.00 0.01 0.00 84 1018.7
20201026145003 2 185 1.0 6.0 0.00 0.01 0.00 84 1018.6
20201026144501 2 180 3.0 6.0 0.00 0.01 0.00 85 1018.5
20201026144000 2 186 3.0 6.0 0.00 0.01 0.00 84 1018.5
20201026143459 2 201 4.0 4.0 0.00 0.01 0.00 84 1018.5
20201026143000 2 202 2.0 4.0 0.00 0.01 0.00 84 1018.5
20201026142458 2 203 3.0 4.0 0.00 0.01 0.00 84 1018.5
20201026142010 2 196 3.0 3.0 0.00 0.01 0.00 84 1018.5
20201026141458 2 186 2.0 3.0 0.00 0.01 0.00 84 1018.5
20201026140959 2 186 1.0 4.0 0.00 0.01 0.00 84 1018.6
20201026140509 1 186 0.0 5.0 0.00 0.01 0.00 84 1018.4
20201026140031 1 186 1.0 5.0 0.00 0.01 0.00 84 1018.5
20201026135510 1 205 1.0 4.0 0.00 0.01 0.00 84 1018.5
20201026134958 2 205 3.0 3.0 0.00 0.01 0.00 84 1019.1
20201026134459 2 206 1.0 2.0 0.00 0.01 0.00 84 1019.1
20201026133959 2 206 0.0 2.0 0.00 0.01 0.00 84 1019.0
20201026133500 2 206 1.0 2.0 0.00 0.01 0.00 84 1019.1
20201026132959 2 206 0.0 0.0 0.00 0.01 0.00 84 1019.0
20201026132505 2 206 0.0 3.0 0.00 0.01 0.00 84 1019.0
20201026131958 2 206 0.0 3.0 0.00 0.01 0.00 84 1018.9
20201026131458 2 224 0.0 0.0 0.00 0.01 0.00 84 1019.0
20201026131000 2 224 0.0 0.0 0.00 0.01 0.00 84 1019.0
20201026130505 2 224 0.0 0.0 0.00 0.01 0.00 84 1019.1
20201026130033 2 224 0.0 0.0 0.00 0.01 0.00 84 1019.1
20201026125459 2 224 0.0 1.0 0.00 0.01 0.00 84 1019.2
20201026125010 2 224 0.0 1.0 0.00 0.01 0.00 84 1019.2
20201026124503 2 224 1.0 2.0 0.00 0.01 0.00 84 1019.0
20201026124006 2 224 0.0 2.0 0.00 0.01 0.00 84 1019.1
20201026123507 1 236 0.0 2.0 0.00 0.01 0.00 83 1019.1
20201026122957 1 236 0.0 2.0 0.00 0.01 0.00 84 1019.1
20201026122458 1 236 0.0 1.0 0.00 0.01 0.00 83 1019.1
20201026121959 1 236 0.0 1.0 0.00 0.01 0.00 83 1019.0
20201026121458 1 236 0.0 3.0 0.00 0.01 0.00 83 1019.0
20201026120959 1 236 0.0 3.0 0.00 0.01 0.00 82 1018.8
20201026120508 1 294 0.0 3.0 0.00 0.01 0.00 82 1018.9
20201026120051 1 294 0.0 3.0 0.00 0.01 0.00 82 1018.9
20201026115458 1 294 1.0 5.0 0.00 0.01 0.00 82 1019.6
20201026114958 1 294 3.0 5.0 0.00 0.01 0.00 82 1019.6
20201026114500 1 296 4.0 5.0 0.00 0.01 0.00 82 1019.7
20201026114000 1 298 3.0 4.0 0.00 0.01 0.00 82 1019.5
20201026113457 1 298 3.0 5.0 0.00 0.01 0.00 82 1019.6
20201026113010 1 299 3.0 5.0 0.00 0.01 0.00 82 1019.7
20201026112458 1 299 3.0 4.0 0.00 0.01 0.00 81 1019.8
20201026111959 1 294 3.0 4.0 0.00 0.01 0.00 82 1019.9
20201026111511 1 294 3.0 5.0 0.00 0.01 0.00 82 1019.8
20201026110957 1 290 2.0 7.0 0.00 0.01 0.00 82 1019.9
20201026110458 1 290 3.0 7.0 0.00 0.01 0.00 82 1019.9
20201026110029 1 295 4.0 7.0 0.00 0.01 0.00 82 1019.9
20201026105500 2 286 3.0 6.0 0.00 0.01 0.00 82 1020.7
20201026104958 2 291 5.0 6.0 0.00 0.01 0.00 83 1020.7
20201026104500 2 286 3.0 5.0 0.00 0.01 0.00 83 1020.7
20201026103957 2 253 2.0 4.0 0.00 0.01 0.00 83 1020.8
20201026103504 1 284 4.0 4.0 0.00 0.01 0.00 83 1020.5
20201026102957 1 284 3.0 4.0 0.00 0.01 0.00 83 1020.7
20201026102458 1 286 2.0 3.0 0.00 0.01 0.00 82 1020.7
20201026101959 1 217 0.0 2.0 0.00 0.01 0.00 82 1020.6
20201026101457 1 217 0.0 2.0 0.00 0.01 0.00 82 1020.5
20201026100957 1 217 2.0 2.0 0.00 0.01 0.00 82 1020.6
20201026100457 1 217 0.0 2.0 0.00 0.01 0.00 82 1020.6
20201026095959 1 217 0.0 2.0 0.00 0.01 0.00 81 1020.5
20201026095458 1 217 1.0 4.0 0.00 0.01 0.00 81 1021.7
20201026094957 1 217 0.0 4.0 0.00 0.01 0.00 80 1021.8
20201026094457 1 259 3.0 4.0 0.00 0.01 0.00 79 1021.8
20201026094007 1 283 3.0 7.0 0.00 0.01 0.00 79 1022.0
20201026093456 2 281 4.0 7.0 0.00 0.01 0.00 79 1022.0
20201026092957 2 292 6.0 7.0 0.00 0.01 0.00 79 1022.1
20201026092456 2 301 4.0 7.0 0.00 0.01 0.00 79 1022.2
20201026091956 3 285 3.0 6.0 0.00 0.01 0.00 79 1022.6
20201026091457 3 294 5.0 6.0 0.00 0.01 0.00 80 1022.6
20201026090957 3 294 3.0 4.0 0.00 0.01 0.00 80 1022.8
20201026090457 4 272 2.0 3.0 0.00 0.01 0.00 81 1022.8
20201026090029 4 238 1.0 4.0 0.00 0.01 0.00 82 1022.8
20201026085457 4 236 0.0 4.0 0.00 0.01 0.00 82 1022.3
20201026084956 4 241 3.0 5.0 0.00 0.01 0.00 82 1022.4
20201026084500 4 213 3.0 5.0 0.00 0.01 0.00 83 1022.4
20201026083956 3 214 2.0 5.0 0.00 0.01 0.00 83 1022.4
20201026083456 3 199 5.0 6.0 0.00 0.01 0.00 83 1022.4
20201026082957 3 204 4.0 6.0 0.00 0.01 0.00 83 1022.5
20201026082504 2 204 3.0 4.0 0.00 0.01 0.00 82 1022.4
20201026081958 2 223 2.0 4.0 0.00 0.01 0.00 82 1022.4
20201026081456 2 220 3.0 5.0 0.00 0.01 0.00 82 1022.6
20201026081045 2 211 3.0 6.0 0.00 0.01 0.00 81 1022.6
20201026080456 2 248 2.0 7.0 0.00 0.01 0.00 81 1022.7
20201026080031 1 223 2.0 7.0 0.00 0.01 0.00 80 1022.8
20201026075456 2 253 3.0 5.0 0.00 0.01 0.00 80 1023.3
20201026074957 2 251 2.0 6.0 0.00 0.01 0.00 80 1023.3
20201026074455 2 281 4.0 6.0 0.00 0.01 0.00 80 1023.5
20201026074027 2 275 3.0 4.0 0.00 0.01 0.00 80 1023.6
20201026073529 2 232 2.0 6.0 0.00 0.01 0.00 80 1023.4
20201026073043 2 279 3.0 6.0 0.00 0.01 0.00 81 1023.6
20201026072526 2 228 3.0 5.0 0.00 0.01 0.00 81 1023.6
20201026072025 2 232 4.0 4.0 0.00 0.01 0.00 80 1023.5
20201026071458 2 236 2.0 4.0 0.00 0.01 0.00 81 1023.6
20201026071031 2 257 2.0 4.0 0.00 0.01 0.00 81 1023.6
20201026070455 2 277 3.0 6.0 0.00 0.01 0.00 82 1023.5
20201026070038 2 232 2.0 6.0 0.00 0.01 0.00 83 1023.5
20201026065455 1 212 4.0 7.0 0.00 0.01 0.00 82 1023.6
20201026065027 1 215 2.0 7.0 0.00 0.01 0.00 82 1023.6
20201026064455 1 234 4.0 5.0 0.00 0.01 0.00 81 1023.6
20201026063955 1 238 4.0 6.0 0.00 0.01 0.00 81 1023.7
20201026063526 0 246 3.0 6.0 0.00 0.01 0.00 81 1023.4
20201026062956 0 269 5.0 6.0 0.00 0.01 0.00 80 1023.5
20201026062525 0 262 4.0 5.0 0.00 0.01 0.00 80 1023.6
20201026062017 0 254 3.0 6.0 0.00 0.01 0.00 79 1023.5
20201026061526 1 275 3.0 7.0 0.00 0.01 0.00 79 1023.9
20201026060955 1 284 5.0 9.0 0.00 0.01 0.00 79 1024.0
20201026060526 1 292 4.0 9.0 0.00 0.01 0.00 79 1023.9
20201026060034 1 281 5.0 7.0 0.00 0.01 0.00 79 1024.1
20201026055525 2 280 5.0 7.0 0.00 0.01 0.01 79 1024.2
20201026055024 2 279 4.0 6.0 0.00 0.01 0.01 79 1024.1
20201026054526 2 251 4.0 7.0 0.00 0.01 0.01 79 1024.1
20201026053954 2 290 4.0 7.0 0.00 0.01 0.01 79 1024.2
20201026053525 2 278 4.0 8.0 0.00 0.01 0.01 79 1024.3
20201026053034 3 245 4.0 8.0 0.00 0.01 0.01 80 1024.4
20201026052525 3 227 4.0 9.0 0.00 0.01 0.01 80 1024.5
20201026052026 3 280 4.0 10.0 0.00 0.01 0.01 80 1024.5
20201026051524 3 222 6.0 10.0 0.00 0.01 0.01 80 1024.4
20201026051038 2 242 4.0 7.0 0.00 0.01 0.01 80 1024.4
20201026050525 3 209 6.0 7.0 0.00 0.01 0.01 80 1024.4
20201026050026 3 229 3.0 7.0 0.00 0.01 0.01 80 1024.5
20201026045455 3 242 4.0 7.0 0.00 0.01 0.01 80 1024.4
20201026045025 3 234 4.0 6.0 0.00 0.01 0.01 80 1024.5
20201026044529 3 279 4.0 7.0 0.00 0.01 0.01 80 1024.5
20201026044024 3 250 5.0 9.0 0.00 0.01 0.01 80 1024.5
20201026043454 3 211 6.0 12.0 0.00 0.01 0.01 80 1024.4
20201026043025 2 273 4.0 12.0 0.00 0.01 0.01 80 1024.1
20201026042524 2 248 5.0 6.0 0.00 0.01 0.01 80 1024.1
20201026042024 3 236 4.0 10.0 0.00 0.01 0.01 80 1024.6
20201026041528 3 242 3.0 10.0 0.00 0.01 0.01 79 1024.7
20201026041025 3 246 4.0 7.0 0.00 0.01 0.01 79 1024.7
20201026040527 3 243 5.0 8.0 0.00 0.01 0.01 79 1024.7
20201026040031 3 263 4.0 8.0 0.00 0.01 0.01 80 1024.6
20201026035524 3 224 5.0 6.0 0.00 0.01 0.01 80 1023.9
20201026034954 3 236 4.0 6.0 0.00 0.01 0.01 81 1024.0
20201026034524 3 288 4.0 5.0 0.00 0.01 0.01 81 1024.0
20201026034033 3 211 3.0 5.0 0.00 0.01 0.01 81 1024.2
20201026033524 3 223 2.0 5.0 0.00 0.01 0.01 81 1024.2
20201026033043 3 239 3.0 5.0 0.00 0.01 0.01 81 1024.3
20201026032524 3 237 3.0 5.0 0.00 0.01 0.01 82 1024.3
20201026031957 3 209 0.0 6.0 0.00 0.01 0.01 82 1024.3
20201026031524 3 171 4.0 6.0 0.00 0.01 0.01 82 1024.3
20201026030954 3 284 1.0 3.0 0.00 0.01 0.01 81 1024.3
20201026030526 3 240 2.0 2.0 0.00 0.01 0.01 82 1024.3
20201026030039 4 240 0.0 2.0 0.00 0.01 0.01 81 1024.6
20201026025523 4 240 0.0 3.0 0.00 0.01 0.01 81 1024.1
20201026025024 4 240 1.0 4.0 0.00 0.01 0.01 81 1024.1
20201026024455 4 235 2.0 4.0 0.00 0.01 0.01 81 1024.0
20201026024030 3 172 3.0 4.0 0.00 0.01 0.01 81 1023.8
20201026023455 3 172 2.0 4.0 0.00 0.01 0.01 81 1023.7
20201026023029 3 172 3.0 4.0 0.00 0.01 0.01 81 1023.8
20201026022523 3 172 3.0 4.0 0.00 0.01 0.01 80 1023.8
20201026022027 3 172 1.0 3.0 0.00 0.01 0.01 80 1023.7
20201026021528 3 172 1.0 5.0 0.00 0.01 0.01 80 1023.7
20201026021041 4 172 2.0 5.0 0.00 0.01 0.01 80 1024.0
20201026020523 4 173 4.0 6.0 0.00 0.01 0.01 80 1024.0
20201026020030 4 174 3.0 6.0 0.00 0.01 0.01 80 1024.0
20201026015526 4 175 3.0 4.0 0.00 0.01 0.01 80 1024.1
20201026015026 4 176 2.0 4.0 0.00 0.01 0.01 80 1024.0
20201026014523 4 177 2.0 6.0 0.00 0.01 0.01 80 1024.0
20201026014023 4 177 2.0 6.0 0.00 0.01 0.01 80 1023.9
20201026013524 4 178 4.0 6.0 0.00 0.01 0.01 80 1023.8
20201026013024 4 169 4.0 6.0 0.00 0.01 0.01 80 1023.8
20201026012524 5 192 4.0 5.0 0.00 0.01 0.01 80 1024.0
20201026012025 5 177 3.0 4.0 0.00 0.01 0.01 80 1023.9
20201026011523 5 176 3.0 5.0 0.00 0.01 0.01 80 1023.8
20201026011026 5 196 3.0 5.0 0.00 0.01 0.01 80 1023.9
20201026010523 5 203 3.0 5.0 0.00 0.01 0.01 89 1023.9
20201026010035 5 210 4.0 4.0 0.00 0.01 0.01 79 1023.8
20201026005526 5 224 2.0 4.0 0.00 0.01 0.01 79 1023.9
20201026005023 6 236 3.0 5.0 0.00 0.01 0.01 79 1024.0
20201026004525 6 235 4.0 5.0 0.00 0.01 0.01 79 1024.1
20201026004048 6 230 4.0 5.0 0.00 0.01 0.01 78 1024.0
20201026003542 6 232 4.0 5.0 0.00 0.01 0.01 78 1023.9
20201026003029 7 233 5.0 6.0 0.00 0.01 0.01 78 1024.4
20201026002526 7 221 4.0 6.0 0.00 0.01 0.01 77 1024.4
20201026002024 7 221 4.0 6.0 0.00 0.01 0.01 77 1024.4
20201026001528 8 215 4.0 6.0 0.00 0.01 0.01 77 1024.5
20201026001024 8 220 4.0 6.0 0.00 0.01 0.01 77 1024.6
20201026000522 8 215 4.0 6.0 0.00 0.01 0.01 76 1024.5
20201026000025 9 216 3.0 6.0 0.00 0.01 0.01 76 1024.8
20201025235522 9 212 4.0 6.0 0.00 0.01 0.01 76 1024.9
20201025235034 10 223 5.0 6.0 0.00 0.01 0.01 76 1025.0
20201025234526 10 227 3.0 6.0 0.00 0.01 0.01 76 1025.0
20201025234022 10 217 3.0 5.0 0.00 0.01 0.01 76 1025.0
20201025233522 10 217 4.0 5.0 0.00 0.01 0.01 76 1025.1
20201025233024 11 223 4.0 6.0 0.00 0.01 0.01 75 1025.6
20201025232523 11 229 4.0 6.0 0.00 0.01 0.01 75 1025.6
20201025232024 11 224 4.0 6.0 0.00 0.01 0.01 75 1025.5
20201025231534 12 223 3.0 5.0 0.00 0.01 0.01 75 1025.6
20201025231032 12 213 4.0 5.0 0.00 0.01 0.01 76 1025.5
20201025230547 12 213 3.0 5.0 0.00 0.01 0.01 76 1025.7
20201025230045 12 221 4.0 4.0 0.00 0.01 0.01 75 1025.6
20201025225527 12 203 4.0 4.0 0.00 0.01 0.01 74 1025.9
20201025225023 13 197 3.0 4.0 0.00 0.01 0.01 74 1025.8
20201025224529 13 213 3.0 4.0 0.00 0.01 0.01 73 1025.9
20201025224030 13 204 2.0 4.0 0.00 0.01 0.01 72 1025.9
20201025223530 14 205 2.0 3.0 0.00 0.01 0.01 71 1026.3
20201025223032 14 202 0.0 4.0 0.00 0.01 0.01 70 1026.5
20201025222526 15 210 0.0 5.0 0.00 0.01 0.01 69 1026.5
20201025222024 16 215 3.0 5.0 0.00 0.01 0.01 68 1026.8
20201025221527 17 205 3.0 5.0 0.00 0.01 0.01 67 1026.9
20201025221024 17 209 0.0 5.0 0.00 0.01 0.01 66 1026.9